User: anonymous
Location: Salamanca
(40.9670°N, 5.6500°W)
Time: 12:00:27
(UTC+02:00)
Language:

Cosmos 1633 Rocket - Orbit

View from above orbital plane
View from above orbital plane
View from above satellite
View from above satellite

Ground track
Ground track

The orbit data is extracted from the following two-line orbital elements,

1 15593U 85020B   14107.06340433  .00000649  00000-0  75833-4 0  6237
2 15593 082.5370 265.0618 0010493 256.7084 243.4635 14.83638592572759
Epoch (UTC): 17 April 2014 01:31:18
Eccentricity: 0.0010493
inclination: 82.5370°
perigee height: 610 km
apogee height: 625 km
right ascension of ascending node: 265.0618°
argument of perigee: 256.7084°
revolutions per day: 14.83638592
mean anomaly at epoch: 243.4635°
orbit number at epoch: 57275

The dashed part of the orbit path shows where the satellite is in the earth's shadow,  

DLR